Flag for Belgium Weather past 2 weeks in Bruges, Belgium

Now
61 °F

Fog.


Feels Like: 61 °F
Forecast: 59 / 71 °F
Wind: 5 mph from West

Location: Oostende Airport

Current Time: Sep 20, 2014 at 1:01:38 AM

Latest Report: Sep 20, 2014 at 12:20 AM


Visibility: 2 mi

Pressure: 29.92 "Hg

Humidity: 88%

Dew point: 57 °F

Location of BrugesLocation

Historic Weather in Bruges — Graph

°F

Bruges temperature yesterday

Maximum temperature yesterday: 75 °F (at 3:20 PM)
Minimum temperature yesterday: 55 °F (at 7:50 AM)
Average temperature yesterday: 65 °F

Past Weeks' High & Low Weather Summary

 TemperatureHumidityPressure
High75 °F (Sep 18, 12:20 PM)100% (Sep 7, 7:50 AM)30.30 "Hg (Sep 7, 7:50 AM)
Low48 °F (Sep 9, 6:20 AM)56% (Sep 8, 12:20 PM)29.77 "Hg (Sep 18, 5:20 AM)
Average62 °F79%30.04 "Hg
* Reported Sep 4 11:20 PM — Sep 19 11:50 PM, Bruges, Weather by CustomWeather, © 2014

Note: Actual official high and low records may vary slightly from our data, if they occured in-between our weather recording intervals... More about our weather records

Advertising

Bruges weather history for previous 24 hours

 ConditionsComfort  
Time TempWeatherWind HumidityBarometerVisibility
11:50 PM
Sep 19
61 °FFog.2 mph88%29.92 "Hg2 mi
11:20 PM63 °FFog.1 mph88%29.92 "Hg3 mi
10:50 PM63 °FFog.3 mph88%29.92 "Hg3 mi
10:20 PM64 °FClear.2 mph88%29.92 "Hg4 mi
9:50 PM64 °FPassing clouds.3 mph88%29.92 "Hg4 mi
9:20 PM66 °FPassing clouds.3 mph83%29.89 "Hg4 mi
8:50 PM64 °FSprinkles. Scattered clouds.2 mph83%29.89 "Hg6 mi
8:20 PM64 °FSprinkles. Broken clouds.1 mph88%29.89 "Hg5 mi
7:50 PM66 °FSprinkles. Partly sunny.2 mph78%29.89 "HgN/A
7:20 PM68 °FScattered clouds.5 mph78%29.89 "HgN/A
6:50 PM68 °FThunderstorms. Scattered clouds.6 mph78%29.89 "Hg4 mi
6:20 PM70 °FThunderstorms. Passing clouds.6 mph73%29.86 "Hg4 mi
5:50 PM70 °FPassing clouds.7 mph73%29.86 "Hg4 mi
5:20 PM72 °FPassing clouds.9 mph69%29.86 "Hg4 mi
4:50 PM72 °FPassing clouds.8 mph69%29.86 "Hg4 mi
4:20 PM73 °FPassing clouds.8 mph65%29.86 "Hg5 mi
3:50 PM73 °FPassing clouds.6 mph65%29.86 "Hg5 mi
3:20 PM75 °FPassing clouds.6 mph65%29.86 "Hg4 mi
2:50 PM73 °FPassing clouds.5 mph69%29.86 "Hg4 mi
2:20 PM70 °FPassing clouds.5 mph73%29.86 "Hg4 mi
1:50 PM70 °FHaze.6 mph73%29.86 "Hg3 mi
1:20 PM72 °FHaze.5 mph73%29.86 "Hg3 mi
12:50 PM72 °FHaze.5 mph73%29.86 "Hg3 mi
12:20 PM73 °FHaze.2 mph69%29.86 "Hg3 mi
11:50 AM68 °FHaze.1 mph78%29.86 "Hg3 mi
11:20 AM68 °FHaze.2 mph78%29.86 "Hg3 mi
10:50 AM68 °FClear.3 mph78%29.86 "Hg4 mi
10:20 AM66 °FClear.3 mph83%29.86 "Hg4 mi
9:50 AM64 °FClear.2 mph83%29.86 "Hg4 mi
9:20 AM63 °FFog.2 mph83%29.86 "Hg2 mi
8:50 AM61 °FFog.2 mph88%29.86 "Hg2 mi
8:20 AM59 °FFog.2 mph88%29.83 "Hg1 mi
7:50 AM55 °FSnow. Overcast.2 mph88%29.83 "Hg1 mi
7:20 AM57 °FFog.1 mph88%29.83 "Hg1 mi
6:50 AM57 °FFog.1 mph82%29.83 "Hg1 mi
6:20 AM59 °FFog.3 mph88%29.80 "Hg1 mi
5:50 AM57 °FFog.1 mph88%29.80 "Hg1 mi
5:20 AM59 °FFog.2 mph88%29.83 "Hg1 mi
4:50 AM57 °FFog.3 mph94%29.80 "Hg1 mi
4:20 AM57 °FFog.3 mph88%29.83 "Hg1 mi
3:50 AM59 °FFog.2 mph88%29.83 "Hg1 mi
3:20 AM59 °FFog.3 mph88%29.83 "Hg1 mi
2:50 AM59 °FFog.3 mph94%29.83 "Hg1 mi
2:20 AM59 °FFog.2 mph88%29.80 "Hg2 mi
1:50 AM61 °FFog.1 mph83%29.80 "Hg2 mi
1:20 AM63 °FFog.3 mph83%29.80 "Hg2 mi
Weather by CustomWeather, © 2014

See weather overviewHow to use our weather pages